Theta_e
297 297 297 298 298 298 298 298 298 298 299 299 299 302 307 310 310 310 312 313 312 314 317 315 315 318 317 314 314 315 314 314 313 312 311 310 310 310 310 310 312 310 311 313 312 313 314 312 314 318 316 316 317 313 313 314 314 317 318 312 314 320 321 318 317 317 315 314 313 312 311 313 315 313 313 315 313 315 323 326 325 322 315 317 322 319 322
297 297 297 297 298 298 298 298 298 298 298 298 300 303 307 309 310 309 311 313 314 316 316 315 317 318 314 312 313 313 312 312 311 311 311 309 310 312 312 311 311 310 310 312 311 312 313 312 313 315 315 315 314 312 313 315 316 317 316 314 315 316 315 317 319 316 312 313 318 319 316 314 313 312 313 313 311 316 319 318 324 324 314 318 325 322 322
297 297 297 297 297 298 298 298 298 297 298 299 301 305 307 309 310 308 307 310 312 313 313 313 315 316 314 313 313 312 312 311 310 310 310 308 308 311 312 310 309 310 312 314 312 312 313 314 313 314 315 314 311 311 313 313 315 316 313 313 315 316 319 325 326 320 316 316 320 323 319 313 312 312 313 314 314 318 315 316 326 323 311 316 327 324 322
296 296 297 297 297 298 297 297 297 297 299 300 302 306 307 309 310 309 307 306 307 308 308 309 310 311 312 312 311 311 312 311 309 309 309 308 307 308 307 307 310 314 315 316 314 312 313 314 313 313 315 315 310 310 314 313 314 317 312 309 317 322 320 323 327 324 321 320 318 317 314 313 312 311 312 315 317 318 319 321 323 320 315 317 319 318 318
296 296 297 297 297 297 297 297 297 297 300 301 303 306 307 307 307 307 307 306 306 306 306 307 308 310 311 311 309 309 309 309 310 309 308 308 307 308 305 305 310 313 314 317 315 312 312 312 311 311 311 315 312 309 310 310 310 314 310 307 321 330 319 315 319 317 313 315 312 309 310 310 309 310 311 314 318 322 324 319 312 315 320 317 314 316 317
296 296 297 296 297 297 297 297 296 297 300 303 304 304 305 305 305 304 305 307 307 307 306 307 307 307 309 309 308 308 308 308 309 309 308 307 307 311 308 304 305 306 310 316 315 313 315 313 311 310 309 313 315 311 310 309 306 310 311 309 319 328 317 310 314 312 308 309 309 308 309 308 308 312 313 313 317 321 320 314 311 315 321 317 313 315 315
296 296 296 296 297 297 297 297 297 296 299 304 306 304 303 304 304 303 305 306 307 305 304 305 305 305 308 309 307 307 308 308 306 307 311 309 307 309 308 304 303 303 306 312 312 310 314 313 310 309 309 311 314 312 312 310 305 309 316 312 313 318 315 311 314 312 307 308 308 308 309 309 309 311 312 313 315 316 315 312 311 313 316 313 311 312 311
296 296 296 296 296 296 297 297 297 296 298 302 305 304 302 303 303 303 304 303 303 303 303 304 305 304 305 307 306 305 307 308 306 305 309 310 308 308 307 304 303 303 304 308 308 306 309 310 309 309 309 311 311 309 310 308 305 309 316 313 311 314 313 314 321 317 309 308 309 308 310 312 311 311 312 313 313 313 314 312 310 312 311 307 309 313 310
296 296 296 296 296 296 297 298 297 296 297 301 303 304 303 303 303 303 303 302 301 302 303 304 305 304 304 304 305 304 305 306 307 305 305 306 307 308 307 304 304 304 304 306 306 305 305 307 307 307 307 308 309 308 308 307 305 309 313 313 315 318 313 313 323 320 310 308 309 310 313 313 313 313 313 313 313 312 311 309 308 310 310 309 311 312 308
295 296 296 296 296 296 297 298 297 296 296 299 303 303 303 303 303 302 304 303 300 300 302 304 305 305 303 303 303 303 303 303 307 309 305 303 305 305 304 304 305 305 305 305 304 302 303 304 304 304 305 305 305 306 306 306 305 307 311 311 314 320 317 314 318 318 311 310 311 314 317 314 312 313 310 309 310 309 307 306 304 305 309 312 312 308 305
295 296 296 296 296 296 296 298 298 296 296 299 302 303 303 303 303 301 303 304 301 298 300 302 303 304 303 302 303 303 303 303 305 307 305 302 302 302 301 304 307 306 303 303 303 302 303 304 303 304 304 304 305 305 305 306 305 305 309 310 311 318 320 316 317 317 311 310 313 316 316 312 310 309 307 307 308 306 306 305 303 303 306 307 306 305 305
295 296 296 296 296 296 296 298 298 297 297 299 302 303 303 303 302 300 301 304 301 298 300 301 301 302 302 302 302 303 303 303 303 303 303 301 301 302 300 301 305 305 303 302 303 303 303 304 305 305 304 303 304 304 304 307 307 303 304 308 311 317 317 314 317 318 311 310 316 316 313 310 308 305 304 305 304 303 303 303 302 303 304 304 304 304 304
295 295 296 296 296 296 295 297 298 298 297 298 301 303 302 302 302 300 300 302 301 299 301 301 299 300 301 301 302 302 301 302 302 301 302 302 301 301 301 301 301 302 302 302 302 304 305 307 308 307 306 307 308 307 305 307 307 304 304 305 310 316 316 311 312 313 309 310 315 314 309 306 306 306 305 305 305 306 306 304 302 303 303 304 304 302 301
295 295 296 296 295 295 295 296 298 298 298 298 299 301 302 302 302 301 300 302 300 297 299 301 301 300 301 300 301 302 301 302 302 302 302 301 301 301 301 301 301 301 303 303 302 303 307 311 314 311 310 312 311 308 306 305 305 306 305 303 305 312 316 312 309 309 311 312 310 307 306 305 306 308 307 304 304 306 307 305 302 301 301 301 302 302 300
295 295 295 296 295 295 295 295 297 298 298 298 299 300 301 300 300 301 300 301 302 299 299 301 301 300 300 299 300 302 303 303 303 303 302 301 301 302 301 301 301 302 303 302 302 307 311 311 313 312 309 310 308 306 307 306 304 304 305 303 305 308 310 311 308 307 311 313 308 305 307 308 308 309 306 303 302 302 303 305 303 300 299 299 300 301 299
296 295 295 295 295 295 295 295 296 297 297 298 298 300 300 299 299 300 299 300 302 302 299 298 299 299 299 299 299 300 302 303 304 306 306 303 301 301 301 301 301 302 303 301 302 310 313 309 309 310 306 305 306 305 306 307 306 305 304 305 307 308 309 313 312 308 308 312 310 308 308 307 307 307 304 301 301 300 302 307 305 299 298 298 298 298 297
296 296 295 295 295 295 294 294 295 296 297 297 298 299 300 299 299 299 298 298 299 299 298 298 299 299 299 300 300 299 300 301 301 303 305 303 300 300 301 301 301 301 302 303 305 310 310 307 307 309 305 303 305 306 305 307 308 307 306 307 309 310 311 313 313 311 309 310 309 307 306 305 304 305 303 300 300 300 303 309 306 299 297 298 297 297 297
296 296 295 295 295 294 294 294 295 296 296 297 298 298 299 299 299 298 298 298 298 298 298 298 298 298 298 299 299 298 299 300 300 302 303 301 299 300 300 300 301 301 302 306 309 308 306 305 304 304 304 302 304 306 306 306 306 304 304 307 308 309 311 310 309 309 310 310 308 305 305 304 303 303 302 299 300 302 305 308 304 297 297 298 297 298 298
296 296 296 295 295 295 294 294 295 296 297 297 297 298 299 299 298 298 298 298 298 298 298 297 297 297 298 297 297 297 298 299 300 302 305 303 300 299 300 300 300 300 300 305 307 305 304 304 301 302 304 302 302 305 304 303 302 301 302 305 306 306 308 308 306 306 307 307 305 304 305 303 301 301 300 299 303 306 305 302 299 297 297 298 298 298 298
295 296 296 295 295 295 295 295 296 297 297 297 297 297 298 299 298 298 298 298 298 298 297 297 297 297 297 297 297 298 299 299 299 300 301 301 300 301 303 304 302 300 300 304 305 302 303 303 301 301 303 301 301 304 304 302 300 299 300 303 302 302 305 306 304 304 305 305 304 305 305 301 299 301 301 300 302 303 300 298 298 298 298 298 298 298 298
295 296 296 296 295 295 296 296 296 297 296 296 296 297 298 299 299 299 299 299 299 299 298 297 297 297 297 297 297 297 298 299 299 299 299 299 299 302 304 303 301 299 299 301 302 300 300 301 301 300 300 300 301 302 302 303 303 299 299 302 301 301 304 305 303 302 305 305 303 302 301 299 297 300 300 299 299 299 298 298 298 298 298 298 298 298 298
295 296 296 296 295 295 296 297 297 297 296 297 297 296 297 298 299 299 299 299 299 299 298 298 297 297 297 297 297 297 297 297 297 298 298 298 298 300 301 299 299 299 298 299 301 300 299 300 300 300 300 300 300 299 300 303 304 300 299 301 301 300 300 301 300 299 300 302 301 299 298 298 298 298 298 298 298 298 298 298 298 298 299 298 298 298 298
296 295 295 296 295 295 296 297 297 297 297 297 297 297 296 297 298 299 299 298 297 298 298 298 297 297 297 297 297 297 297 297 297 297 297 297 298 298 299 298 299 299 298 299 299 299 299 299 299 300 300 299 300 301 301 301 301 300 299 300 299 297 297 299 299 298 297 298 298 297 297 298 298 298 298 298 298 298 298 298 298 298 299 298 298 298 298
296 296 295 295 295 295 296 297 298 297 297 298 298 297 297 297 298 299 299 298 297 297 297 297 297 297 297 297 297 297 297 297 297 297 297 297 297 298 298 298 299 299 298 299 298 298 299 298 298 300 300 298 300 302 301 300 300 300 301 301 300 298 298 299 300 299 300 299 297 297 297 298 298 298 298 298 298 298 298 298 298 298 298 298 298 297 297
296 296 295 295 295 295 295 296 298 298 297 298 298 298 297 297 297 298 299 299 298 298 298 298 298 298 297 297 297 297 297 297 297 297 297 297 297 298 298 298 298 298 298 298 298 298 298 297 298 301 301 298 298 300 299 299 299 300 301 302 300 298 299 300 300 301 301 299 297 296 297 297 297 298 298 298 298 298 297 298 298 298 298 298 297 297 297
296 296 296 295 296 296 295 295 297 298 299 299 299 298 295 294 295 296 298 299 298 298 299 300 298 297 297 297 297 297 297 297 297 297 297 297 297 297 297 298 298 298 298 298 298 298 298 297 298 301 301 298 298 299 299 298 298 299 299 299 297 297 298 298 298 298 298 298 297 297 297 297 297 298 298 298 298 297 297 297 297 297 297 297 297 297 297
295 296 296 296 296 296 296 294 295 297 299 299 299 297 294 292 294 296 296 297 298 298 300 300 298 297 297 297 296 297 297 297 297 296 297 297 296 297 297 297 297 297 297 297 297 297 297 298 298 299 299 297 297 297 297 296 297 299 299 297 296 298 298 297 297 299 300 299 298 297 297 298 297 297 297 297 297 297 297 297 297 297 297 297 297 297 297
296 296 296 296 296 296 295 295 295 296 298 299 299 297 294 292 293 295 295 297 298 299 299 299 298 297 297 297 296 297 296 296 296 296 296 296 296 296 296 296 296 297 297 297 297 297 297 297 297 297 297 297 297 297 296 296 298 299 299 297 297 297 297 298 300 301 301 299 298 297 298 298 297 297 297 297 297 297 297 297 297 297 296 296 296 296 296
295 295 295 296 296 296 296 296 295 296 297 298 298 297 296 294 293 293 294 295 297 297 297 298 298 298 297 297 296 296 296 296 297 296 297 296 296 296 296 296 296 297 297 297 297 296 296 297 296 296 297 298 298 298 297 298 299 298 297 297 297 297 297 297 298 298 298 298 298 297 297 297 297 297 297 297 297 297 297 297 296 296 295 295 295 294 294
295 295 295 296 297 296 296 296 296 295 296 296 296 297 297 296 294 293 293 294 296 297 297 298 299 298 297 297 297 297 296 296 297 297 297 297 297 297 296 296 296 296 296 297 296 295 296 296 296 296 298 297 296 297 297 297 297 297 297 297 297 297 298 297 297 297 298 298 297 297 297 297 297 297 297 297 297 297 296 296 296 295 295 294 294 294 293
294 295 295 296 296 297 297 297 297 296 297 297 296 296 297 296 295 293 293 294 295 296 296 297 298 298 297 297 298 297 296 296 296 297 297 297 297 297 296 296 296 296 296 296 295 295 296 296 295 296 298 297 297 298 300 299 297 296 296 298 298 297 297 297 297 297 297 297 297 297 297 297 297 297 297 297 297 296 296 295 295 294 294 294 293 293 292
294 295 295 295 296 297 297 297 297 298 298 298 297 297 297 297 295 293 293 293 295 295 296 298 299 297 296 297 297 297 297 297 296 297 298 297 297 297 296 295 296 296 296 296 295 295 295 295 295 296 297 297 298 299 300 300 299 297 296 298 298 297 297 297 297 297 297 297 297 297 296 297 297 297 297 297 296 296 295 295 294 293 293 293 292 292 291
294 294 295 295 296 297 297 297 297 298 298 298 299 299 299 298 296 294 293 293 294 296 297 298 298 297 296 297 297 297 297 297 297 297 297 297 297 297 296 295 295 296 296 296 295 295 295 295 295 295 296 297 298 298 298 299 299 297 297 297 298 297 297 297 297 297 297 297 297 296 296 297 297 297 297 296 296 295 294 294 293 293 292 292 292 292 291
294 294 294 295 295 296 297 298 298 298 298 298 299 299 299 298 296 295 293 292 294 297 299 298 298 298 298 297 298 297 297 297 297 297 297 297 297 296 296 296 295 295 296 296 295 295 296 295 295 296 297 296 295 296 298 298 297 295 297 298 297 297 297 297 297 297 297 297 297 296 296 297 296 296 296 296 295 295 294 293 293 293 292 292 292 291 291
294 294 294 295 295 296 297 298 298 298 298 299 299 298 297 296 295 294 293 293 294 297 299 298 298 298 299 300 300 299 297 297 297 297 296 297 297 296 296 295 295 295 296 296 295 294 295 295 295 296 296 295 295 297 298 297 295 295 297 297 297 297 297 296 296 297 297 296 297 296 296 296 296 296 296 295 294 294 293 293 293 292 292 292 291 291 291
295 294 294 295 295 296 297 299 299 299 299 299 299 297 296 296 295 294 294 294 294 295 296 297 298 297 298 300 300 298 297 297 297 296 296 296 296 296 296 295 295 295 295 295 294 294 295 295 296 295 294 294 297 299 298 296 296 296 297 297 297 296 296 295 295 296 297 296 296 296 296 295 295 295 295 295 294 293 293 293 292 291 291 291 291 291 291
295 294 294 295 295 297 299 300 300 299 299 299 298 296 296 296 296 295 295 295 295 296 296 296 297 296 296 298 298 297 297 298 297 296 297 296 296 295 295 296 295 295 294 295 296 296 296 296 295 295 296 297 298 297 295 295 297 297 296 297 297 296 295 295 295 296 297 296 296 296 296 295 295 295 294 294 294 293 292 292 291 291 290 291 291 291 291
295 295 295 295 296 298 299 300 299 299 299 299 297 297 297 297 297 297 298 298 298 298 297 297 297 296 296 297 297 297 298 297 296 297 297 296 296 296 296 295 295 294 295 297 297 295 295 297 297 296 297 296 296 295 296 296 296 296 296 296 296 296 295 295 295 296 296 296 296 296 295 295 295 294 294 294 294 293 291 290 289 289 290 290 290 291 291
295 295 295 295 296 297 298 299 298 298 298 298 297 298 298 298 298 298 299 299 299 299 299 298 298 297 297 297 297 297 297 297 296 297 297 296 296 297 296 295 295 294 295 297 296 293 295 298 297 295 296 295 294 295 296 296 296 296 297 296 295 295 295 295 296 296 296 296 296 295 295 295 294 294 294 294 293 292 290 289 289 289 289 290 290 290 291
295 295 295 295 296 297 297 297 296 296 297 297 298 298 298 298 298 297 298 299 299 299 298 299 298 297 297 297 297 297 297 297 297 298 298 297 296 295 294 295 295 294 294 296 295 293 295 296 295 295 297 297 295 295 296 296 296 296 296 295 295 295 295 295 296 296 296 296 296 295 294 294 294 294 294 294 293 292 291 291 290 289 289 290 290 290 290
295 295 296 296 296 297 297 296 296 297 297 297 297 297 297 297 297 296 296 298 299 299 298 297 298 297 297 297 297 297 297 298 297 296 296 296 296 295 295 295 294 293 294 296 295 294 296 296 295 296 298 297 296 295 296 296 296 296 296 295 294 294 295 296 296 296 296 296 296 295 294 294 294 294 294 294 294 293 293 293 292 290 289 290 289 289 290
295 295 296 296 296 296 297 297 297 298 298 297 297 297 296 296 297 296 296 297 298 298 297 296 297 297 297 297 297 297 297 298 296 295 296 296 295 295 296 296 294 294 296 296 295 295 295 294 295 298 298 295 294 296 296 296 296 296 295 294 294 294 295 296 296 296 296 296 295 294 294 294 294 294 294 294 294 293 293 293 292 291 290 289 289 289 290
296 296 296 297 297 296 297 297 297 298 298 297 297 296 297 297 297 297 297 297 297 296 297 297 297 297 297 297 297 297 297 297 296 296 296 296 296 295 296 296 295 295 296 296 295 295 295 295 298 300 299 295 294 296 296 295 296 296 294 293 293 294 295 296 296 296 296 296 295 294 294 294 294 294 294 294 293 293 292 292 291 290 290 290 289 289 290
296 296 296 296 296 296 296 297 297 296 297 297 297 296 297 298 298 297 298 299 298 297 297 297 297 297 298 298 297 296 296 296 296 296 295 295 296 296 295 296 296 294 294 296 296 295 295 297 299 298 295 295 295 296 295 295 296 295 294 293 294 294 295 295 295 296 296 295 295 294 294 294 294 293 293 293 293 292 292 292 291 290 290 290 289 289 290
296 296 296 296 296 296 295 296 296 296 297 298 298 298 297 297 297 298 298 298 298 297 297 297 297 297 298 297 297 297 296 295 295 296 295 294 295 295 295 297 297 295 293 296 296 294 295 298 298 295 294 295 295 295 295 296 295 294 293 294 294 295 295 295 295 295 295 294 294 294 294 294 293 293 293 292 292 292 292 292 291 290 290 290 289 289 290
296 296 295 296 297 296 295 296 297 297 297 297 297 297 297 296 296 297 297 297 297 297 297 298 297 297 297 297 297 297 296 295 295 296 295 294 296 296 295 295 296 295 295 296 296 296 298 298 296 294 294 295 295 295 295 295 294 294 293 294 294 295 295 295 295 295 295 294 294 294 294 294 293 293 293 293 293 293 292 292 291 291 290 289 288 289 290
296 295 294 296 298 297 296 297 297 297 296 295 296 296 296 296 296 296 297 297 297 297 297 298 298 297 297 296 296 297 296 295 296 296 295 295 296 297 296 295 295 296 296 295 296 300 301 298 294 293 295 295 295 295 295 295 294 294 294 294 295 295 295 295 295 295 295 295 294 294 295 294 293 293 293 293 294 294 293 292 292 291 291 290 288 288 289
296 295 295 298 299 297 296 297 297 296 295 296 296 296 296 296 296 296 297 297 297 297 297 297 297 297 297 296 296 296 295 295 296 296 296 295 295 296 297 296 296 295 295 296 299 302 301 297 294 295 296 295 295 295 295 294 294 294 293 294 295 295 295 295 295 295 295 295 295 294 294 294 293 293 294 294 294 294 293 292 292 291 290 290 289 288 288
296 296 296 296 296 295 295 296 296 295 296 296 296 296 296 296 296 296 297 297 297 297 297 296 296 297 297 296 296 295 295 296 296 296 296 296 296 297 297 297 296 296 297 297 297 298 297 295 294 295 295 295 295 295 295 294 294 293 293 294 294 294 295 295 295 295 295 296 295 295 294 294 293 294 294 294 294 294 293 293 292 291 291 290 289 288 287
296 296 295 295 296 295 295 295 296 296 296 296 296 296 296 296 296 296 297 297 297 297 296 296 296 296 296 295 296 296 296 296 296 296 296 297 297 296 295 296 297 299 299 297 295 294 295 295 295 295 295 295 295 295 295 294 293 293 293 294 294 294 295 294 294 294 295 295 295 295 295 294 294 294 294 294 294 295 294 293 292 292 291 291 289 287 286
296 295 295 296 296 296 296 296 296 296 296 295 296 296 296 296 296 296 297 296 296 296 296 296 296 296 296 296 296 296 296 295 295 296 297 297 297 296 297 297 297 298 297 296 295 295 296 296 295 295 296 295 295 295 295 294 293 293 293 294 293 294 294 294 294 294 295 295 295 296 296 295 295 294 294 294 295 295 295 294 293 292 291 291 289 287 287
295 295 295 296 296 296 296 296 295 295 295 296 296 296 296 296 296 296 296 296 296 296 296 296 296 297 297 297 296 296 296 296 295 295 296 296 295 295 298 299 297 295 295 295 295 296 296 295 295 296 296 295 295 295 295 294 294 294 294 293 294 294 294 294 294 294 294 295 295 296 295 296 296 295 295 295 295 295 295 295 293 292 292 291 290 289 288
Wind_Speed
26 28 29 29 31 31 31 32 31 32 31 28 24 18 14 10 3 10 13 8 17 9 2 2 1 2 1 2 4 4 3 2 2 3 3 3 4 2 2 3 2 1 1 1 1 1 3 1 2 1 2 3 4 4 7 7 5 4 2 2 1 2 4 3 1 3 3 4 4 4 3 5 6 4 2 3 1 2 4 5 4 3 3 2 4 2 4
26 28 29 30 31 31 31 32 30 30 31 28 23 16 12 10 5 11 14 8 15 4 2 1 1 3 3 2 3 4 4 5 5 4 1 3 2 1 1 3 3 3 2 3 3 2 2 2 1 1 0 2 5 5 9 5 3 3 1 1 0 1 1 3 3 2 3 3 4 5 5 4 4 3 4 3 2 3 3 1 2 3 3 4 5 2 6
27 27 28 29 30 30 31 31 30 29 29 25 19 14 11 8 4 10 17 11 9 4 2 2 1 3 3 3 3 3 4 4 3 3 3 4 3 2 2 4 5 4 3 4 5 5 3 2 2 2 2 3 9 11 9 6 3 3 4 3 2 2 2 3 5 4 3 2 2 3 2 2 2 3 6 5 4 5 3 1 4 2 2 3 5 4 5
26 27 28 29 30 31 30 31 30 29 28 23 15 11 9 6 3 5 12 18 17 11 10 8 3 3 1 1 2 2 3 3 6 7 6 5 7 6 5 5 4 5 5 5 6 8 5 3 3 3 4 2 6 11 12 10 6 4 7 7 4 3 3 2 5 5 5 5 4 4 3 3 1 1 5 5 3 4 5 4 3 3 3 3 1 4 3
26 26 27 28 30 31 30 30 30 29 27 20 10 10 10 5 3 4 4 9 14 14 17 16 7 3 1 2 2 5 3 3 8 9 6 7 8 7 7 8 5 3 4 5 4 6 6 6 5 4 5 2 4 9 13 12 11 5 5 6 4 4 3 1 4 4 2 4 2 1 4 5 3 1 3 4 3 5 6 4 2 4 6 1 4 1 5
25 25 26 28 29 30 30 30 29 28 26 17 10 14 13 6 3 6 4 3 5 7 12 14 9 7 7 2 2 6 6 6 6 5 5 8 9 5 6 10 8 4 3 4 3 5 4 6 5 4 5 4 5 7 7 8 12 6 3 5 4 6 1 1 3 6 4 4 4 5 6 5 4 3 3 4 4 5 6 2 0 4 6 4 2 5 5
25 25 25 27 29 30 30 30 29 27 23 17 16 18 13 7 5 7 8 6 3 4 7 10 9 11 9 4 5 7 8 8 5 3 3 6 9 6 4 6 9 8 6 5 3 4 3 3 4 3 4 4 3 4 3 6 12 8 3 3 3 4 1 1 3 5 5 5 5 6 6 5 5 5 4 4 5 6 6 3 2 6 6 4 7 9 5
24 24 24 26 27 29 30 30 29 28 21 17 21 22 14 8 6 6 7 8 8 10 10 8 7 10 9 6 6 7 7 7 5 6 5 2 5 6 6 3 5 7 9 8 5 1 2 3 1 1 2 3 3 3 1 3 8 7 3 2 3 3 2 0 3 5 3 4 4 5 7 7 7 7 5 4 7 7 6 4 3 6 7 4 7 10 5
24 24 24 24 25 27 29 29 29 29 24 19 22 22 14 9 8 6 4 5 8 10 9 6 4 6 8 6 6 6 7 7 4 6 10 7 3 2 4 4 3 6 8 9 3 2 3 4 5 4 2 3 2 2 2 1 5 6 3 2 3 4 3 1 4 4 1 1 3 4 7 9 8 6 6 5 5 5 3 3 3 2 5 5 7 7 1
23 24 23 23 24 24 26 27 27 28 26 22 22 20 14 10 9 6 3 4 8 8 5 6 5 3 5 7 7 7 8 10 5 5 10 13 10 5 3 4 3 5 7 7 4 6 6 6 9 9 8 9 8 8 8 3 1 3 3 3 2 3 4 2 3 3 2 3 0 3 5 6 3 3 3 2 3 6 5 5 6 4 4 5 4 3 2
22 23 23 22 22 23 23 25 26 26 26 24 22 19 16 12 10 8 4 4 8 8 4 5 5 1 5 8 9 9 11 13 10 5 5 9 12 13 10 6 5 4 5 8 8 9 10 9 8 10 11 11 9 8 7 4 2 2 1 2 2 3 4 3 2 3 3 5 3 3 3 1 3 5 2 2 5 10 10 6 6 6 5 4 4 3 3
21 22 22 22 21 21 21 22 23 24 24 22 20 17 15 12 11 11 8 5 5 8 5 5 4 2 4 6 5 5 8 10 12 10 7 5 12 18 17 10 5 2 7 11 10 7 7 5 3 4 7 8 8 5 2 3 3 2 2 2 2 3 4 3 2 4 2 2 5 4 2 3 2 3 3 4 6 12 15 9 6 7 7 5 6 6 5
20 20 20 21 20 20 20 20 20 21 21 20 18 16 13 11 10 11 9 6 3 5 2 4 9 10 10 9 5 3 7 10 13 15 13 9 12 17 17 12 6 7 9 8 7 4 1 1 2 2 3 4 5 3 1 1 5 5 4 2 3 4 3 3 2 3 2 1 3 2 4 2 2 4 3 3 2 6 11 9 8 7 5 4 5 5 5
20 20 19 19 20 19 19 18 18 19 20 19 17 14 12 11 11 11 10 7 3 5 3 2 8 11 10 10 8 5 8 12 11 12 12 10 10 13 17 17 13 11 9 5 4 4 3 1 2 2 3 3 3 2 1 3 6 8 8 6 2 6 4 2 2 2 3 3 2 1 0 0 1 3 2 1 2 2 4 5 3 4 5 4 3 4 6
20 19 19 18 18 18 18 18 17 17 18 17 15 13 12 11 11 10 9 6 4 6 10 5 5 7 6 9 10 6 5 7 7 5 7 9 10 11 15 19 16 12 10 7 4 3 3 2 3 2 2 2 1 1 1 2 3 5 7 6 2 3 3 4 4 2 3 5 3 2 1 3 5 4 4 4 5 5 3 5 2 4 7 6 4 4 5
20 19 19 18 18 17 16 17 16 16 16 15 13 12 12 12 12 11 11 9 5 3 8 7 4 3 3 7 10 7 3 4 4 3 4 8 11 12 13 15 16 13 11 8 5 3 3 2 2 2 0 1 1 1 2 2 3 4 5 7 8 7 2 3 4 2 3 5 4 3 4 4 5 6 7 10 10 5 2 5 1 3 5 6 8 8 8
19 19 19 17 17 16 16 16 16 16 15 14 12 12 11 11 12 13 16 18 13 6 7 10 11 11 7 5 7 6 4 4 3 2 2 4 8 12 14 15 15 16 14 7 3 4 4 2 2 2 0 2 0 0 1 2 2 5 6 6 8 7 4 4 4 2 2 4 3 2 3 3 4 5 7 14 12 0 4 2 3 3 2 7 11 11 10
18 19 19 17 17 16 15 15 15 16 15 12 10 10 10 10 9 9 12 16 12 8 9 14 16 14 9 6 6 6 5 5 3 1 2 2 4 9 13 12 13 14 12 6 2 3 4 2 2 2 1 3 2 1 1 2 2 4 4 4 5 4 3 3 3 3 3 4 3 1 1 2 4 6 11 16 8 4 5 4 6 5 6 8 12 12 10
16 18 18 17 17 16 16 14 14 15 15 12 9 9 10 10 10 10 13 15 12 8 10 14 16 16 14 13 13 10 7 7 6 3 1 3 6 8 6 6 9 10 8 5 3 2 3 2 2 1 1 3 2 1 1 2 2 3 3 3 3 3 3 3 2 2 3 3 3 1 1 2 7 10 12 12 4 3 2 3 6 8 9 9 10 10 8
15 16 17 17 16 16 16 14 13 14 15 13 9 8 9 9 9 10 13 15 14 12 11 12 15 16 16 17 18 16 12 11 9 6 3 2 9 8 2 3 8 9 6 5 3 1 2 1 2 1 1 2 2 2 2 2 2 3 2 1 2 1 2 2 2 2 2 3 3 3 2 4 9 8 7 7 3 3 4 6 7 7 8 8 7 7 5
14 14 16 17 16 16 16 13 12 13 15 14 10 6 5 6 7 9 9 10 10 9 9 9 11 13 14 14 16 17 15 13 10 8 6 5 9 7 3 2 5 5 2 2 2 1 1 0 1 1 1 2 2 2 2 2 3 4 1 2 2 2 1 1 1 1 2 1 1 2 2 4 9 7 4 4 6 7 8 7 6 5 6 6 5 4 3
13 13 15 15 15 15 14 13 12 12 15 16 13 8 5 4 5 7 8 8 7 6 6 6 8 9 9 10 12 13 14 14 13 11 10 10 11 10 5 2 5 4 3 2 2 1 1 1 1 1 1 1 2 2 2 3 1 4 3 2 2 2 3 5 2 2 2 3 3 5 4 5 12 13 10 8 10 9 8 7 6 5 3 3 3 3 3
12 13 13 14 14 13 12 11 11 11 13 15 15 14 11 7 4 6 7 9 10 10 8 7 6 6 6 7 8 9 10 11 12 12 12 9 8 9 8 6 6 4 4 5 2 1 1 1 1 2 1 0 2 2 3 3 1 1 2 2 1 2 5 7 4 3 5 7 7 7 7 8 11 13 11 10 9 7 6 6 5 3 2 2 3 4 4
11 12 12 13 13 12 10 9 8 9 11 13 15 15 13 9 6 5 5 6 8 8 7 6 7 7 6 5 4 6 8 8 8 10 13 10 6 5 6 7 5 4 5 6 4 1 2 1 0 2 1 0 1 3 2 2 0 0 2 2 3 3 3 4 3 3 4 4 4 5 6 8 10 11 10 8 6 4 3 3 2 1 1 3 4 5 5
10 11 12 13 13 11 9 6 6 6 8 11 13 13 11 9 8 6 4 4 6 5 3 3 6 7 5 4 4 4 5 6 6 7 10 11 9 7 6 6 6 5 6 6 5 3 4 2 2 3 2 0 1 1 1 1 0 1 2 0 2 3 4 3 3 3 2 2 3 4 7 8 9 8 7 5 4 2 1 1 2 3 4 5 6 7 8
9 10 11 12 13 11 8 5 4 5 6 8 11 12 12 11 9 7 5 5 6 5 2 1 3 4 5 6 7 4 2 4 6 6 7 8 9 8 7 6 6 6 6 6 6 6 5 3 2 2 1 0 1 1 2 2 1 2 2 1 2 2 2 1 3 3 2 2 1 2 5 4 4 5 4 3 3 2 1 1 2 4 5 7 8 10 11
8 9 10 12 13 11 7 5 3 3 3 6 8 10 13 13 11 9 7 5 3 2 1 1 2 3 5 6 6 3 2 3 5 6 5 5 6 6 5 5 5 5 5 5 5 5 5 3 3 1 1 0 1 2 2 2 2 3 2 3 3 2 1 1 4 4 0 3 2 2 3 3 2 2 2 2 3 1 1 2 4 5 6 8 10 11 12
8 8 9 11 12 10 7 6 4 1 2 5 6 7 10 13 12 11 8 6 4 2 1 3 4 2 3 4 5 4 3 3 5 5 4 4 4 4 4 5 4 2 3 4 3 3 3 2 1 0 1 1 2 1 2 3 4 3 1 3 3 2 2 3 4 4 4 5 4 3 3 3 2 1 1 1 1 3 4 5 6 6 7 8 10 11 12
7 7 7 9 10 8 6 5 5 3 1 3 4 4 6 10 12 11 8 6 6 5 3 3 3 2 1 2 3 3 2 2 3 4 3 2 4 5 5 5 3 1 0 1 1 1 1 1 0 1 1 1 1 1 1 3 3 0 2 2 2 4 4 4 5 5 4 4 5 4 4 3 2 2 1 2 3 5 6 7 7 7 8 9 11 13 15
7 6 5 6 7 6 4 4 5 5 4 4 4 3 3 7 10 10 8 6 6 6 5 3 2 1 2 3 2 2 2 1 2 3 2 2 3 5 5 4 2 0 1 1 0 1 1 2 1 1 0 1 1 2 1 2 1 2 4 5 7 7 5 5 5 3 3 5 6 4 3 4 3 3 3 4 5 5 6 6 7 8 10 12 14 16 17
8 6 5 5 5 4 2 2 3 4 5 5 5 4 2 4 7 9 7 6 5 5 5 4 2 2 3 2 3 4 4 2 3 5 6 5 4 5 6 5 2 1 1 1 1 1 1 1 1 1 1 2 1 2 3 3 1 2 6 9 9 7 5 5 4 3 4 5 4 3 4 5 4 3 4 5 6 6 6 7 9 11 13 15 16 16 14
8 7 6 5 4 3 2 0 1 2 3 5 6 5 5 7 9 9 6 5 5 5 4 3 2 2 3 4 4 5 5 4 6 8 7 5 4 3 4 3 3 3 2 1 1 1 1 1 1 1 2 2 1 2 3 3 2 6 11 13 11 8 6 5 5 5 5 6 5 4 5 6 5 5 5 6 5 5 6 10 13 15 15 15 12 10 10
9 8 7 7 6 5 4 3 2 1 1 3 4 5 7 10 11 9 6 4 4 4 3 2 1 0 2 3 3 3 5 5 5 6 6 3 3 3 3 3 4 4 3 2 2 1 1 2 2 1 2 2 2 3 2 1 5 11 15 15 12 10 8 6 6 7 7 7 6 5 6 6 5 5 5 5 4 5 9 14 15 14 13 10 7 7 10
9 9 8 7 7 6 6 5 5 4 3 3 3 5 8 11 11 8 5 3 3 2 1 1 1 1 2 2 1 2 5 6 4 5 5 3 3 4 3 2 3 3 2 2 2 2 2 3 3 2 2 2 2 2 1 4 7 13 16 15 12 10 9 8 8 9 8 7 6 5 4 4 4 5 6 4 4 9 12 14 13 11 8 6 6 8 10
10 9 8 7 8 8 8 7 6 6 6 5 5 7 9 10 9 6 4 2 2 1 0 0 0 0 2 2 1 2 4 5 5 5 4 4 4 5 3 2 1 1 2 3 2 1 1 2 4 3 1 1 2 1 4 6 10 15 17 15 13 12 10 9 10 10 8 5 5 5 3 2 4 6 5 3 6 9 11 11 11 9 7 6 6 7 9
9 9 8 7 8 8 8 7 6 6 6 5 6 8 9 7 5 4 3 2 2 1 1 0 0 2 2 1 2 2 2 3 5 5 4 4 4 4 2 1 1 1 2 1 1 1 2 3 3 1 1 1 2 5 8 12 17 20 20 17 14 12 10 9 9 9 8 6 6 6 4 3 3 4 3 3 5 7 9 10 9 7 6 5 5 6 8
9 8 7 6 6 6 6 6 6 5 4 4 7 9 8 5 4 4 4 3 3 3 2 1 1 3 3 2 2 2 1 2 4 4 4 4 4 3 1 1 1 1 1 1 1 1 2 4 3 1 1 3 4 7 9 13 19 21 19 16 13 12 10 9 8 8 8 7 6 6 4 3 3 4 3 3 4 6 7 7 5 4 4 5 6 7 8
7 7 6 5 5 5 4 4 5 5 3 5 8 7 5 2 1 2 3 2 2 4 4 3 3 4 4 2 1 2 1 2 2 2 2 3 3 3 1 1 0 0 1 2 3 1 1 0 1 1 3 5 6 8 10 13 17 18 15 12 11 10 9 7 7 8 8 7 7 6 6 5 6 5 5 4 3 4 4 3 3 4 5 6 7 8 9
7 6 5 4 3 3 4 6 8 8 7 7 5 2 1 1 1 1 1 1 2 3 4 4 4 5 5 3 3 3 3 2 2 1 1 1 1 1 2 1 0 1 1 2 2 1 1 2 2 1 3 5 6 8 9 11 14 14 11 8 8 7 7 6 6 7 7 6 5 5 5 6 7 7 6 4 3 2 2 3 3 4 5 6 8 9 9
6 4 3 3 3 3 5 8 9 7 4 2 1 0 0 0 1 1 1 0 1 2 4 4 4 4 5 5 4 4 4 3 1 1 1 1 1 0 1 1 0 1 1 2 2 1 1 1 2 1 2 5 7 8 10 12 13 12 9 7 6 6 6 6 6 7 7 6 4 4 5 5 7 7 6 4 2 2 3 3 4 4 5 6 8 8 9
6 5 5 5 6 5 4 4 3 1 1 1 1 1 1 0 2 1 0 1 1 2 4 4 3 3 6 7 5 4 4 4 3 2 1 1 1 1 1 0 1 1 0 3 3 1 3 0 2 1 4 7 9 11 14 14 12 10 8 7 7 6 6 6 7 8 7 6 5 5 4 5 7 6 4 3 2 3 4 5 5 5 5 6 7 8 8
8 7 7 7 6 6 5 2 2 2 2 2 1 1 0 1 2 2 1 1 2 2 2 3 3 2 4 5 4 2 3 3 3 2 0 1 2 2 1 1 1 1 2 4 1 3 2 1 2 3 6 8 9 12 17 16 13 11 8 7 6 5 5 6 8 8 7 6 6 4 4 5 6 3 3 4 4 4 4 5 6 6 5 6 7 8 8
7 6 7 7 6 5 5 3 2 2 1 2 2 2 2 2 2 1 1 3 3 2 1 2 2 1 2 4 3 2 2 3 4 2 1 1 2 1 2 2 1 1 2 1 2 3 0 2 3 5 6 8 8 13 18 17 13 10 8 7 5 4 4 6 8 7 6 6 6 5 5 5 4 3 4 6 6 4 3 5 6 6 5 6 7 7 7
7 6 6 5 4 4 3 2 2 2 1 1 1 1 1 3 3 1 1 4 4 3 3 3 4 3 2 2 2 1 2 3 2 2 1 2 0 2 1 1 2 2 1 2 2 0 2 3 4 6 6 6 7 12 17 17 14 10 9 7 5 4 4 6 7 7 7 7 6 7 6 5 4 4 5 6 5 4 4 5 6 6 5 6 7 7 6
7 6 5 4 3 4 2 1 1 1 0 1 1 2 2 2 3 3 3 6 6 4 3 2 3 3 2 1 1 2 3 3 2 2 1 1 1 0 1 2 1 0 1 1 1 1 2 3 5 6 6 7 9 12 17 18 14 10 9 7 5 4 4 4 5 5 7 8 7 8 7 6 5 5 5 6 6 5 5 6 6 7 6 6 7 6 6
7 6 5 2 2 3 2 1 0 1 1 2 2 2 2 3 4 5 8 10 7 4 3 3 3 4 4 4 3 3 3 2 1 1 1 2 1 2 3 1 1 2 2 1 2 2 3 5 6 7 8 9 10 11 16 18 13 10 9 8 6 5 5 4 4 4 6 8 8 8 8 7 7 7 6 6 6 7 7 7 6 7 7 7 6 5 6
5 5 4 2 1 2 1 1 1 2 2 2 2 3 3 5 8 9 10 11 9 7 8 9 8 6 5 4 3 3 4 3 2 1 1 2 0 1 0 1 0 1 1 1 3 4 5 6 8 9 9 10 9 9 16 18 15 12 11 9 7 7 7 6 5 4 5 8 9 9 8 8 9 9 7 6 6 7 8 7 6 6 7 6 5 4 5
4 3 2 1 1 1 1 1 2 4 6 6 7 6 6 7 10 10 9 9 9 10 11 9 6 4 3 3 2 2 2 2 1 2 2 1 0 1 1 1 2 2 2 3 4 4 4 7 9 9 8 9 7 8 16 19 16 13 12 11 10 10 9 8 7 5 5 7 8 8 8 9 10 10 8 6 6 6 7 7 6 5 5 5 4 4 5
4 2 1 1 2 4 5 4 5 7 9 9 8 7 7 10 11 10 9 8 8 9 9 6 4 2 2 1 1 1 1 1 1 1 0 1 0 0 1 1 2 3 2 3 5 5 7 11 12 10 8 8 6 6 15 18 16 13 12 12 11 11 10 10 9 7 6 7 7 7 8 11 12 11 9 7 6 6 6 7 6 4 4 5 5 4 4
3 3 4 3 2 3 5 4 4 5 7 8 9 10 11 14 13 11 9 10 11 9 7 5 4 3 1 0 1 1 2 2 2 1 1 1 2 2 1 2 3 4 3 3 4 5 9 12 11 9 8 8 6 7 13 16 16 15 14 13 13 12 12 11 10 9 9 8 6 6 7 10 12 13 11 9 8 7 7 7 7 5 4 4 4 4 4
2 4 6 7 7 6 5 4 4 5 8 12 15 15 14 15 15 12 10 11 12 9 5 4 3 0 1 0 1 1 1 2 2 1 1 2 2 2 2 3 5 5 4 3 4 6 9 11 9 7 7 8 8 10 14 17 17 17 16 15 14 13 13 12 12 12 11 10 8 7 7 7 9 11 11 11 10 10 8 7 7 7 5 4 3 3 3
5 5 6 8 11 12 11 11 12 14 16 19 21 19 15 15 15 14 12 11 9 8 7 6 3 1 1 2 2 1 1 1 1 1 2 3 2 3 4 6 7 8 7 6 6 8 10 11 11 11 10 9 9 10 13 17 20 18 16 16 16 14 14 14 15 15 14 12 11 10 8 6 6 8 10 12 13 13 10 8 8 8 7 5 3 3 3
Wind_Direction
358 358 357 358 358 359 358 356 356 356 354 357 358 356 354 352 5 19 18 157 167 144 95 332 356 173 244 247 218 231 229 225 270 272 272 257 245 236 237 247 214 170 300 55 79 83 102 111 267 255 187 191 200 151 100 73 65 82 55 294 261 84 82 87 5 316 319 314 332 6 45 71 65 30 29 76 65 109 143 176 179 129 140 141 85 82 259
0 359 359 358 360 1 360 358 359 0 359 357 356 352 347 346 358 29 36 157 184 172 45 180 283 294 308 331 276 252 231 234 243 242 337 330 290 14 18 331 353 10 40 62 34 6 81 87 16 360 80 309 339 61 97 95 71 83 140 217 181 38 96 106 94 31 4 357 340 346 4 34 56 350 336 11 51 74 101 129 77 104 180 154 115 168 253
2 1 0 0 2 3 3 1 1 4 4 359 354 352 351 352 9 28 35 72 129 115 77 160 255 297 301 296 282 263 257 262 233 170 72 28 18 46 352 337 354 357 37 58 17 9 48 77 55 22 10 339 351 25 71 88 66 110 133 119 97 113 119 110 121 146 163 158 219 251 289 358 28 345 339 360 37 52 76 80 67 107 192 115 120 189 243
4 3 3 3 4 6 6 5 5 8 8 1 1 12 13 16 26 2 19 42 54 47 28 18 332 266 240 243 312 339 310 340 39 70 70 32 37 51 11 351 14 8 28 62 26 6 8 26 63 33 4 343 345 17 53 59 38 82 98 74 79 99 69 86 126 142 172 177 202 216 157 87 73 322 344 351 7 52 85 90 90 158 140 73 208 191 155
6 6 6 5 6 8 9 10 10 12 12 5 13 44 47 48 21 346 356 22 22 22 17 7 339 295 51 102 4 357 342 359 25 40 46 23 31 53 27 19 39 5 15 85 49 357 354 17 37 15 350 321 329 19 53 50 21 27 55 37 75 97 43 45 99 80 142 164 155 139 101 98 123 137 15 352 3 62 83 95 131 133 110 80 276 139 104
8 9 8 7 9 10 12 15 15 16 17 18 48 61 50 54 26 12 47 42 360 17 3 342 339 15 25 58 45 17 27 39 22 9 26 26 24 46 34 20 28 21 29 105 61 358 11 24 9 350 354 343 338 11 48 33 15 27 37 14 79 111 75 236 94 61 58 83 76 78 87 86 84 73 33 2 21 73 97 105 190 122 129 180 180 88 84
9 12 12 10 10 11 13 16 19 22 22 30 61 65 47 48 48 22 48 67 29 28 357 334 2 25 15 26 41 26 33 40 23 350 20 26 14 37 75 23 19 32 41 85 81 14 37 43 357 344 352 338 345 8 360 354 5 22 50 19 62 108 99 264 100 79 57 48 64 96 107 103 71 46 31 47 64 79 86 63 38 89 102 128 112 90 62
10 13 15 13 12 13 15 17 21 25 26 36 58 59 45 44 41 7 35 54 25 21 18 5 24 23 10 17 18 15 30 34 27 27 43 52 358 28 87 80 39 49 49 67 91 73 114 109 339 353 12 344 6 32 338 319 347 2 36 7 16 88 134 250 80 81 48 26 58 97 107 107 82 46 26 69 81 60 49 41 37 72 87 102 99 85 46
11 13 17 17 15 15 16 18 21 24 27 40 52 52 46 51 47 19 32 38 5 10 21 23 39 23 8 8 359 1 9 6 22 46 43 57 65 45 107 113 62 50 51 60 78 231 189 195 255 245 212 273 292 294 285 332 349 351 5 352 3 67 115 45 63 93 204 338 82 105 94 84 70 38 8 22 64 70 54 38 22 84 135 120 85 87 56
12 13 18 19 18 17 17 19 22 23 28 38 44 44 42 50 53 45 81 57 10 8 26 32 48 33 348 351 359 4 2 0 23 73 43 42 50 52 101 115 67 42 39 35 351 300 286 280 292 289 266 264 270 269 273 285 348 341 357 14 18 75 117 117 87 119 237 296 103 129 86 69 39 323 328 6 92 111 94 46 19 24 118 123 107 131 205
13 13 18 21 20 20 18 21 23 22 27 33 36 37 36 40 44 35 63 76 10 356 17 40 47 29 340 355 5 7 10 12 21 61 64 34 35 37 38 51 74 71 18 350 332 315 305 300 307 308 294 286 287 282 281 289 260 232 333 34 20 54 101 125 115 128 220 285 334 50 59 113 250 274 260 172 137 112 94 58 14 17 44 102 118 92 27
14 15 17 20 22 21 19 22 23 24 27 29 32 37 36 39 48 43 59 91 6 352 29 50 36 29 13 25 30 5 9 18 24 45 68 39 31 36 35 36 61 42 344 340 337 320 302 299 309 305 295 292 297 297 279 300 304 251 192 135 110 73 91 126 104 107 167 303 30 49 261 229 250 353 65 119 122 104 95 74 28 24 31 52 62 42 21
15 15 17 19 21 21 21 21 22 24 26 26 28 37 41 46 60 61 67 87 24 348 27 33 19 28 30 28 27 4 22 35 38 46 51 34 26 31 27 24 12 343 342 344 346 353 328 327 2 320 291 316 334 324 225 12 14 23 17 18 142 133 118 136 110 99 142 84 69 146 228 251 355 353 35 89 52 72 82 62 19 11 14 34 56 38 32
15 15 17 18 19 21 21 20 21 22 24 24 25 35 47 55 64 67 69 87 69 10 31 24 4 14 22 18 8 2 19 28 34 43 42 30 23 20 16 16 11 2 5 3 360 38 79 41 23 6 328 1 20 334 245 65 51 44 19 354 155 145 130 131 129 137 144 120 98 142 181 359 267 294 320 103 302 316 100 97 30 358 1 11 47 33 31
16 15 16 17 19 21 21 20 19 17 20 24 25 37 52 56 60 66 68 96 116 39 34 28 320 323 352 13 15 17 14 9 8 19 29 28 24 16 15 18 16 14 25 33 28 48 74 66 60 50 358 23 81 276 323 38 42 42 29 14 50 123 153 168 169 185 116 103 99 92 127 211 223 252 285 309 304 279 166 117 88 350 2 23 76 64 44
16 15 16 17 18 19 21 22 19 14 15 21 27 41 56 59 64 73 71 76 105 35 15 15 360 360 18 19 22 33 29 350 344 344 1 11 7 5 15 24 21 19 28 40 44 45 55 70 94 112 137 262 208 269 335 352 332 343 9 30 41 44 56 122 129 145 118 119 138 166 184 220 243 253 283 320 324 291 134 86 52 317 15 65 93 77 62
16 16 15 16 18 19 19 20 19 16 15 19 28 40 52 59 68 79 79 76 82 71 37 46 56 56 52 24 15 23 8 344 355 27 2 336 341 350 3 18 21 21 26 34 36 39 47 45 52 79 359 301 37 84 342 17 1 335 342 13 29 27 21 52 82 101 125 128 133 154 183 232 263 247 292 327 332 341 118 92 240 227 99 93 97 83 70
16 16 15 16 17 17 17 18 19 18 20 23 29 37 47 56 63 75 83 83 82 69 56 61 62 59 58 46 28 21 4 348 349 351 333 327 335 341 350 8 17 15 22 39 53 45 50 27 22 69 335 319 30 87 349 26 20 332 337 13 22 17 14 43 85 80 63 101 105 79 208 256 292 293 321 337 342 136 145 222 214 169 127 103 93 87 75
13 15 16 16 16 16 16 18 18 18 23 28 31 37 45 55 67 78 83 85 85 78 67 66 66 65 64 60 54 52 50 39 33 35 24 355 347 337 342 22 24 9 17 47 63 54 58 10 332 80 62 334 353 55 36 33 8 337 354 28 26 12 1 15 61 54 39 90 101 80 180 329 328 319 336 355 8 176 182 191 161 130 117 105 89 84 77
10 13 15 15 17 17 15 19 22 22 24 28 32 36 38 44 64 78 81 84 87 83 72 66 66 66 63 58 55 57 61 57 48 58 109 314 338 350 34 39 6 1 17 41 40 45 71 18 311 17 65 316 323 57 53 4 355 360 8 30 30 32 38 30 27 31 49 72 76 106 172 333 342 329 335 8 38 166 136 115 117 108 103 98 83 77 73
6 9 13 15 17 18 17 21 28 29 30 32 33 34 34 41 62 76 80 86 86 80 75 71 68 67 64 58 55 55 58 60 55 57 69 32 10 28 124 216 338 355 22 54 54 15 41 163 291 6 40 310 331 56 72 18 354 346 355 109 54 7 80 144 309 348 86 93 64 126 199 341 22 58 98 67 80 115 122 111 100 89 84 76 64 57 36
4 5 9 13 16 18 20 24 29 32 36 37 39 45 51 50 67 76 75 75 75 77 91 92 75 68 66 59 56 56 56 58 55 50 54 56 54 65 95 81 37 35 20 36 67 45 360 49 86 56 48 3 6 36 78 92 40 326 342 67 43 8 110 121 93 44 89 109 124 138 141 70 65 81 99 100 93 95 95 91 91 92 75 38 22 3 333
3 3 4 9 14 17 19 23 27 28 31 35 40 47 51 54 74 84 80 78 82 87 99 105 92 76 62 53 53 55 53 53 52 46 42 51 69 74 69 58 53 50 40 45 61 139 113 123 136 97 80 51 69 58 45 69 119 304 354 44 36 59 100 106 101 93 76 76 100 129 126 100 91 92 97 99 99 93 81 72 75 82 65 353 329 316 309
359 1 1 3 7 13 17 21 25 24 26 33 38 40 45 55 68 83 94 91 84 85 91 87 68 46 27 24 37 46 44 43 48 48 41 39 55 77 68 63 64 57 49 43 30 65 105 98 18 90 96 292 95 90 64 49 64 64 47 2 332 5 53 79 99 115 101 91 119 142 127 113 109 106 102 97 93 86 68 53 40 15 300 299 300 298 294
353 357 359 358 360 5 9 14 22 24 27 35 36 35 43 56 56 59 81 89 74 76 84 51 40 39 41 42 34 25 33 40 43 40 34 36 53 78 87 77 65 49 44 41 33 60 86 65 41 86 109 11 36 110 128 111 167 96 85 181 277 340 24 62 88 88 110 188 196 156 136 126 112 106 107 104 97 84 10 314 291 285 284 290 296 297 295
346 352 355 355 357 0 1 2 13 18 20 26 30 31 35 42 45 49 62 75 71 71 73 356 38 64 70 56 39 24 44 54 34 24 28 40 54 68 77 68 51 36 34 37 40 55 70 72 73 93 114 57 51 130 145 132 126 95 90 232 261 329 3 79 98 67 29 303 272 149 149 150 118 106 115 127 126 138 208 232 265 280 283 288 294 295 295
337 346 352 352 355 1 4 358 354 10 21 22 28 31 30 33 44 51 53 59 63 58 18 327 13 49 54 44 38 51 99 64 21 17 38 48 43 50 54 43 31 22 10 12 35 55 57 57 72 93 206 150 69 71 102 108 95 89 62 325 345 29 55 116 88 79 253 254 238 154 169 223 225 134 134 147 147 161 263 279 290 296 295 297 300 299 297
324 337 347 351 356 4 12 10 4 27 38 20 29 39 33 33 41 46 44 48 56 58 355 318 327 354 53 52 52 70 88 50 9 11 36 45 36 33 18 5 14 25 352 351 26 63 50 46 64 292 286 101 81 22 37 67 68 64 323 311 359 79 147 150 127 151 203 221 212 191 210 244 235 162 154 176 276 313 313 313 314 313 310 310 311 310 308
311 325 337 346 355 5 20 30 40 68 52 6 21 42 36 31 34 34 30 32 37 38 21 349 345 4 34 38 56 68 64 21 14 23 40 44 31 20 2 358 26 105 230 314 40 57 20 352 261 299 348 67 115 322 22 68 76 92 250 243 104 109 121 128 138 154 176 191 193 200 226 242 232 222 256 301 317 315 316 320 320 319 322 324 323 321 318
298 306 321 335 348 3 23 48 66 75 64 32 21 28 30 25 23 21 18 15 18 24 23 17 11 341 320 313 330 358 351 8 33 25 12 357 356 350 342 341 350 141 176 195 121 21 357 336 331 331 269 176 125 95 103 118 121 237 227 177 143 138 139 138 145 161 193 195 192 201 232 240 247 274 292 307 315 317 322 327 325 326 329 326 322 320 320
296 291 296 310 325 341 6 59 85 80 64 50 43 42 36 11 3 5 12 17 19 21 17 360 328 318 331 342 340 329 325 330 338 331 320 308 305 318 326 323 297 209 186 177 188 235 248 261 312 311 216 186 127 101 126 131 116 239 214 186 168 165 167 165 173 202 218 208 204 221 234 235 248 273 284 297 309 317 327 333 332 329 324 319 317 319 324
300 287 278 281 291 296 295 294 101 81 62 54 49 42 26 5 356 355 3 15 21 22 17 360 345 338 345 351 340 322 311 302 304 315 318 301 279 301 318 298 246 236 248 218 194 255 255 214 223 254 228 195 152 88 101 115 154 205 201 190 182 183 189 196 211 229 235 231 229 233 237 243 257 272 279 288 296 308 328 335 332 325 317 314 318 328 336
304 293 280 272 272 270 264 260 256 252 23 33 26 6 354 351 348 346 349 360 12 22 25 22 30 278 311 336 343 337 335 325 317 334 345 319 265 283 306 275 252 254 250 225 222 270 266 201 198 228 231 203 151 93 89 180 205 197 192 188 185 189 199 213 223 230 238 244 249 251 248 250 259 266 265 263 276 313 329 328 323 317 311 311 325 341 343
310 302 291 275 267 263 257 257 262 267 282 322 333 323 331 337 336 335 337 342 353 9 18 24 49 291 314 334 14 9 356 355 354 1 5 344 283 277 281 276 271 257 234 235 247 253 243 221 198 188 210 201 127 93 283 251 218 193 185 184 185 191 201 211 220 230 242 250 255 256 251 244 241 236 230 242 304 326 326 321 318 317 317 315 323 337 343
313 310 299 279 267 264 263 266 270 267 263 272 296 313 324 329 328 326 325 323 330 338 254 222 118 78 349 352 345 331 348 357 355 345 342 333 307 283 261 259 286 252 227 231 228 225 245 218 189 185 227 187 127 180 236 225 202 189 185 183 184 189 200 212 220 225 231 238 243 243 238 236 235 225 224 275 323 327 324 322 324 330 333 328 324 334 344
314 314 302 280 271 272 270 271 271 260 250 266 308 326 327 321 314 311 303 290 281 259 225 163 141 163 155 169 288 303 348 5 351 337 331 328 316 291 254 234 277 247 222 221 239 279 246 205 184 192 317 180 203 234 228 209 198 192 189 190 196 206 221 232 227 219 217 219 225 230 236 244 238 226 236 291 317 323 323 322 326 333 341 345 346 349 354
313 311 302 283 275 274 271 269 264 253 252 296 320 323 318 307 299 294 282 273 267 252 226 196 231 217 194 197 250 284 329 337 331 337 347 341 319 297 260 198 262 285 321 323 315 276 216 194 172 164 223 222 244 258 242 220 211 203 195 197 210 224 233 234 219 207 206 207 212 226 240 237 223 227 248 277 305 320 321 324 340 4 11 14 11 5 3
318 313 307 296 278 262 254 256 251 245 271 313 320 316 306 292 293 286 267 252 250 242 225 219 240 230 203 190 232 260 284 323 348 2 353 342 331 322 340 17 301 343 337 298 283 264 213 162 109 184 245 264 276 276 258 232 217 208 200 205 221 232 237 233 217 210 213 216 221 233 234 220 215 224 239 257 291 322 333 347 15 19 17 17 14 6 4
330 325 321 318 298 251 247 266 272 274 287 303 308 300 273 264 306 289 241 223 236 228 214 225 241 222 198 200 240 244 248 310 21 41 314 337 345 332 358 15 9 54 22 316 288 269 345 336 353 335 291 292 282 266 247 217 200 197 201 218 237 246 249 247 242 243 250 253 255 260 255 237 225 218 217 231 267 320 345 356 356 350 352 2 3 360 359
335 342 354 350 336 304 280 285 290 291 290 286 273 356 39 183 208 204 188 219 261 226 210 227 251 237 218 227 240 226 221 242 278 240 243 269 240 238 33 29 224 75 38 285 268 152 121 309 338 360 275 270 257 232 207 191 189 195 206 225 247 257 258 255 259 266 269 266 266 286 284 246 212 200 203 219 250 293 312 332 341 335 335 344 350 354 356
3 12 6 350 345 342 327 313 324 10 76 103 81 23 37 232 261 270 119 102 280 249 216 213 238 242 222 219 219 215 219 232 238 233 249 264 227 164 86 277 255 69 73 254 259 90 101 46 328 286 248 260 254 224 201 192 195 204 216 237 257 265 265 265 267 271 269 256 252 270 267 216 190 188 204 219 237 279 296 309 319 321 328 335 335 338 346
2 1 353 349 357 7 13 43 89 79 66 69 43 6 351 281 304 309 225 220 268 277 229 212 229 243 213 205 213 224 212 210 219 221 231 254 222 190 170 330 31 69 232 244 274 61 65 346 293 258 264 282 269 229 208 200 202 209 224 250 266 268 274 281 280 275 264 248 243 244 222 194 189 202 240 243 250 277 297 303 303 304 313 328 328 324 329
354 355 354 354 4 18 26 47 76 53 45 70 50 9 345 337 337 325 275 276 291 316 296 231 233 219 183 195 215 230 188 202 229 235 194 213 226 143 66 34 45 201 245 259 62 64 242 221 217 245 283 308 283 235 214 204 203 213 230 251 263 269 282 292 288 273 251 235 231 222 203 196 207 241 251 243 243 261 296 310 310 303 299 313 320 314 309
353 349 346 343 358 23 25 21 29 30 29 66 74 76 29 341 327 295 298 317 317 312 295 251 218 209 212 203 206 220 205 211 239 257 227 225 230 79 74 248 234 236 301 4 51 100 240 227 232 256 291 316 285 241 217 203 202 216 232 241 248 259 278 294 290 265 234 221 222 218 209 207 223 238 233 226 225 242 282 307 319 318 307 311 317 306 291
3 1 360 354 1 14 10 332 357 21 309 213 141 146 169 239 255 238 280 309 304 291 283 231 196 206 233 221 196 230 224 207 214 236 216 140 58 70 217 229 225 70 25 5 327 296 283 262 260 272 291 308 291 250 217 202 203 221 234 238 244 252 265 292 297 259 227 220 221 218 213 208 210 217 220 220 225 245 273 296 316 326 323 316 310 292 274
12 14 27 33 349 360 28 99 23 353 187 170 153 163 197 254 272 288 315 320 307 281 291 305 278 252 239 221 219 242 228 190 183 236 180 103 64 242 213 170 69 33 35 3 294 270 245 246 264 286 305 316 303 256 216 202 204 221 234 241 248 246 245 271 294 262 230 222 221 222 223 222 220 224 230 234 241 256 270 282 299 318 325 321 307 283 266
17 17 36 68 274 332 17 171 230 268 249 251 300 314 319 317 311 313 325 330 322 309 301 292 282 272 253 231 231 250 230 190 178 239 183 126 126 270 137 83 46 198 155 210 252 246 237 255 282 302 321 332 316 251 213 204 209 225 238 247 249 241 240 258 278 268 239 228 225 228 235 235 228 226 234 248 265 271 270 269 283 307 321 324 317 293 274
10 2 17 97 203 248 217 216 277 287 280 288 303 312 323 331 328 325 327 324 312 303 293 277 263 270 267 235 223 258 245 174 177 243 217 137 75 329 8 5 287 238 185 198 217 220 245 284 302 314 331 343 329 245 213 207 213 227 236 241 242 241 245 257 267 269 254 239 232 229 227 223 219 222 235 257 277 278 267 260 269 297 315 323 330 321 295
349 333 258 216 247 258 251 259 293 296 286 287 298 307 319 330 334 339 345 340 317 297 283 266 247 254 268 235 190 314 284 172 170 231 206 91 78 219 147 168 258 257 237 218 216 234 276 301 310 312 312 324 322 241 213 211 218 230 238 242 245 246 249 256 264 268 259 247 240 232 221 215 215 221 233 249 271 289 284 269 262 279 312 324 329 327 310
306 261 230 217 243 278 271 266 282 287 284 292 304 312 320 325 327 334 351 349 331 308 283 260 247 246 252 224 55 335 252 218 180 151 161 196 206 191 180 226 235 226 226 239 253 282 312 323 323 312 300 303 295 245 221 217 222 232 239 241 243 245 248 253 260 262 258 253 248 236 226 224 224 225 228 241 266 291 298 280 262 267 304 328 329 322 311
237 244 239 226 226 247 266 271 273 277 282 291 299 306 311 313 313 318 332 337 330 317 289 254 242 206 81 163 228 234 225 199 159 143 202 216 189 153 167 224 227 220 233 281 315 340 349 346 335 317 310 310 294 264 240 228 226 232 237 238 239 242 247 252 255 257 258 257 252 244 241 243 239 232 231 243 262 277 284 275 260 258 274 305 320 319 312
216 238 247 237 237 246 257 263 268 273 278 285 294 301 302 300 303 311 319 321 316 304 287 272 255 163 144 209 213 183 164 195 180 180 221 233 207 182 203 234 246 246 253 278 310 327 332 329 317 306 303 305 299 281 254 235 229 231 236 238 239 242 246 251 256 258 257 255 252 251 255 260 254 241 239 245 252 257 260 260 255 253 260 274 286 286 291